Time,TemperatureF,DewpointF,PressureIn,WindDirection,WindDirectionDegrees,WindSpeedMPH,WindSpeedGustMPH,Humidity,HourlyPrecipIn,Conditions,Clouds,dailyrainin,SoftwareType,DateUTC
2013-06-01 00:02:00,67.0,63.0,29.65,SSE,160,3.0,7.0,87,0.00,,,0.00,,2013-06-01 05:02:00,
2013-06-01 00:12:00,67.0,63.0,29.65,SSE,160,3.0,7.0,87,0.00,,,0.00,,2013-06-01 05:12:00,
2013-06-01 00:22:00,67.0,63.0,29.65,SSE,156,3.0,6.0,87,0.00,,,0.00,,2013-06-01 05:22:00,
2013-06-01 00:32:00,66.0,62.0,29.64,SSE,147,3.0,9.0,87,0.00,,,0.00,,2013-06-01 05:32:00,
2013-06-01 00:42:00,66.0,62.0,29.65,South,172,3.0,7.0,86,0.00,,,0.00,,2013-06-01 05:42:00,
2013-06-01 00:52:00,66.0,62.0,29.65,South,172,3.0,7.0,86,0.00,,,0.00,,2013-06-01 05:52:00,
2013-06-01 01:01:00,66.0,61.0,29.65,South,174,4.0,8.0,85,0.00,,,0.00,,2013-06-01 06:01:00,
2013-06-01 01:12:00,66.0,61.0,29.65,SSE,166,3.0,8.0,84,0.00,,,0.00,,2013-06-01 06:12:00,
2013-06-01 01:22:00,66.0,61.0,29.65,SSE,166,3.0,8.0,84,0.00,,,0.00,,2013-06-01 06:22:00,
2013-06-01 01:32:00,67.0,62.0,29.65,South,169,4.0,9.0,84,0.00,,,0.00,,2013-06-01 06:32:00,
2013-06-01 01:42:00,67.0,62.0,29.65,South,176,4.0,9.0,84,0.00,,,0.00,,2013-06-01 06:42:00,
2013-06-01 01:52:00,67.0,62.0,29.65,South,176,4.0,9.0,84,0.00,,,0.00,,2013-06-01 06:52:00,
2013-06-01 02:01:00,66.0,61.0,29.65,SW,220,3.0,6.0,84,0.00,,,0.00,,2013-06-01 07:01:00,
2013-06-01 02:11:00,66.0,61.0,29.65,SW,220,3.0,6.0,84,0.00,,,0.00,,2013-06-01 07:11:00,
2013-06-01 02:21:00,66.0,61.0,29.64,SSE,161,2.0,5.0,84,0.00,,,0.00,,2013-06-01 07:21:00,
2013-06-01 02:31:00,66.0,62.0,29.62,SSW,210,3.0,5.0,86,0.00,,,0.00,,2013-06-01 07:31:00,
2013-06-01 02:42:00,66.0,62.0,29.62,South,176,2.0,7.0,86,0.00,,,0.00,,2013-06-01 07:42:00,
2013-06-01 02:52:00,66.0,62.0,29.62,South,176,2.0,7.0,86,0.00,,,0.00,,2013-06-01 07:52:00,
2013-06-01 03:02:00,65.0,61.0,29.62,SSW,210,3.0,7.0,86,0.00,,,0.00,,2013-06-01 08:02:00,
2013-06-01 03:11:00,65.0,61.0,29.62,SW,230,3.0,7.0,87,0.00,,,0.00,,2013-06-01 08:11:00,
2013-06-01 03:21:00,65.0,61.0,29.62,SW,230,3.0,7.0,87,0.00,,,0.00,,2013-06-01 08:21:00,
2013-06-01 03:32:00,65.0,61.0,29.62,SSW,199,4.0,8.0,87,0.00,,,0.00,,2013-06-01 08:32:00,
2013-06-01 03:42:00,65.0,61.0,29.62,South,188,4.0,7.0,87,0.00,,,0.00,,2013-06-01 08:42:00,
2013-06-01 03:52:00,65.0,61.0,29.62,South,188,4.0,7.0,87,0.00,,,0.00,,2013-06-01 08:52:00,
2013-06-01 04:01:00,64.0,60.0,29.62,SSW,205,4.0,7.0,87,0.00,,,0.00,,2013-06-01 09:01:00,
2013-06-01 04:12:00,64.0,60.0,29.62,SSW,205,4.0,7.0,87,0.00,,,0.00,,2013-06-01 09:12:00,
2013-06-01 04:21:00,64.0,60.0,29.62,SW,220,3.0,8.0,87,0.00,,,0.00,,2013-06-01 09:21:00,
2013-06-01 04:33:00,64.0,60.0,29.63,SSW,207,4.0,6.0,87,0.00,,,0.00,,2013-06-01 09:33:00,
2013-06-01 04:42:00,64.0,60.0,29.63,SSW,207,4.0,6.0,87,0.00,,,0.00,,2013-06-01 09:42:00,
2013-06-01 04:53:00,64.0,60.0,29.64,WSW,237,2.0,6.0,86,0.00,,,0.00,,2013-06-01 09:53:00,
2013-06-01 05:02:00,63.0,59.0,29.65,SW,234,2.0,7.0,86,0.00,,,0.00,,2013-06-01 10:02:00,
2013-06-01 05:13:00,63.0,59.0,29.65,SW,234,2.0,7.0,86,0.00,,,0.00,,2013-06-01 10:13:00,
2013-06-01 05:22:00,63.0,58.0,29.66,SW,235,4.0,7.0,83,0.00,,,0.00,,2013-06-01 10:22:00,
2013-06-01 05:32:00,63.0,57.0,29.66,West,261,4.0,7.0,81,0.00,,,0.00,,2013-06-01 10:32:00,
2013-06-01 05:42:00,62.0,55.0,29.65,WSW,258,4.0,7.0,79,0.00,,,0.00,,2013-06-01 10:42:00,
2013-06-01 05:52:00,62.0,55.0,29.65,WSW,258,4.0,7.0,79,0.00,,,0.00,,2013-06-01 10:52:00,
2013-06-01 06:02:00,61.0,55.0,29.65,West,265,1.0,5.0,80,0.00,,,0.00,,2013-06-01 11:02:00,
2013-06-01 06:11:00,61.0,55.0,29.65,West,265,1.0,5.0,80,0.00,,,0.00,,2013-06-01 11:11:00,
2013-06-01 06:21:00,61.0,55.0,29.65,WSW,243,1.0,3.0,81,0.00,,,0.00,,2013-06-01 11:21:00,
2013-06-01 06:32:00,60.0,52.0,29.65,West,269,3.0,6.0,76,0.00,,,0.00,,2013-06-01 11:32:00,
2013-06-01 06:42:00,60.0,52.0,29.66,North,0,0.0,2.0,76,0.00,,,0.00,,2013-06-01 11:42:00,
2013-06-01 06:52:00,60.0,52.0,29.66,North,0,0.0,2.0,76,0.00,,,0.00,,2013-06-01 11:52:00,
2013-06-01 07:01:00,60.0,53.0,29.67,SW,224,1.0,3.0,77,0.00,,,0.00,,2013-06-01 12:01:00,
2013-06-01 07:12:00,60.0,53.0,29.67,SW,224,1.0,3.0,77,0.00,,,0.00,,2013-06-01 12:12:00,
2013-06-01 07:21:00,60.0,53.0,29.67,SW,224,1.0,3.0,77,0.00,,,0.00,,2013-06-01 12:21:00,
2013-06-01 07:32:00,61.0,53.0,29.67,WSW,243,1.0,8.0,74,0.00,,,0.00,,2013-06-01 12:32:00,
2013-06-01 07:41:00,62.0,53.0,29.68,SW,234,3.0,7.0,72,0.00,,,0.00,,2013-06-01 12:41:00,
2013-06-01 07:52:00,62.0,53.0,29.68,SW,234,3.0,7.0,72,0.00,,,0.00,,2013-06-01 12:52:00,
2013-06-01 08:01:00,62.0,52.0,29.68,WSW,248,3.0,9.0,70,0.00,,,0.00,,2013-06-01 13:01:00,
2013-06-01 08:11:00,62.0,52.0,29.68,WSW,248,3.0,9.0,70,0.00,,,0.00,,2013-06-01 13:11:00,
2013-06-01 08:22:00,61.0,51.0,29.68,West,267,4.0,8.0,70,0.00,,,0.00,,2013-06-01 13:22:00,
2013-06-01 08:32:00,62.0,52.0,29.69,West,262,4.0,8.0,71,0.00,,,0.00,,2013-06-01 13:32:00,
2013-06-01 08:42:00,63.0,53.0,29.69,West,262,3.0,7.0,69,0.00,,,0.00,,2013-06-01 13:42:00,
2013-06-01 08:52:00,63.0,53.0,29.69,West,262,3.0,7.0,69,0.00,,,0.00,,2013-06-01 13:52:00,
2013-06-01 09:02:00,63.0,52.0,29.69,SSW,208,4.0,10.0,68,0.00,,,0.00,,2013-06-01 14:02:00,
2013-06-01 09:11:00,63.0,52.0,29.69,SSW,208,4.0,10.0,68,0.00,,,0.00,,2013-06-01 14:11:00,
2013-06-01 09:21:00,64.0,53.0,29.69,WSW,254,6.0,13.0,67,0.00,,,0.00,,2013-06-01 14:21:00,
2013-06-01 09:32:00,64.0,53.0,29.69,West,272,4.0,12.0,67,0.00,,,0.00,,2013-06-01 14:32:00,
2013-06-01 09:42:00,64.0,53.0,29.69,West,272,4.0,12.0,67,0.00,,,0.00,,2013-06-01 14:42:00,
2013-06-01 09:52:00,64.0,53.0,29.68,West,260,6.0,10.0,67,0.00,,,0.00,,2013-06-01 14:52:00,
2013-06-01 10:02:00,65.0,54.0,29.68,WSW,245,3.0,11.0,67,0.00,,,0.00,,2013-06-01 15:02:00,
2013-06-01 10:11:00,65.0,54.0,29.68,WSW,245,3.0,11.0,67,0.00,,,0.00,,2013-06-01 15:11:00,
2013-06-01 10:21:00,65.0,53.0,29.68,WSW,242,4.0,12.0,66,0.00,,,0.00,,2013-06-01 15:21:00,
2013-06-01 10:33:00,66.0,56.0,29.68,West,264,3.0,12.0,70,0.00,,,0.00,,2013-06-01 15:33:00,
2013-06-01 10:43:00,66.0,56.0,29.68,West,264,3.0,12.0,70,0.00,,,0.00,,2013-06-01 15:43:00,
2013-06-01 10:53:00,66.0,54.0,29.68,West,259,8.0,12.0,66,0.00,,,0.00,,2013-06-01 15:53:00,
2013-06-01 11:03:00,66.0,55.0,29.69,West,260,3.0,12.0,67,0.00,,,0.00,,2013-06-01 16:03:00,
2013-06-01 11:12:00,66.0,55.0,29.69,West,260,3.0,12.0,67,0.00,,,0.00,,2013-06-01 16:12:00,
2013-06-01 11:23:00,66.0,54.0,29.69,West,271,7.0,12.0,66,0.00,,,0.00,,2013-06-01 16:23:00,
2013-06-01 11:33:00,66.0,55.0,29.70,SW,233,3.0,9.0,68,0.00,,,0.00,,2013-06-01 16:33:00,
2013-06-01 11:42:00,66.0,55.0,29.70,WSW,245,4.0,10.0,67,0.00,,,0.00,,2013-06-01 16:42:00,
2013-06-01 11:52:00,66.0,55.0,29.70,WSW,245,4.0,10.0,67,0.00,,,0.00,,2013-06-01 16:52:00,
2013-06-01 12:02:00,66.0,55.0,29.70,West,263,6.0,11.0,68,0.00,,,0.00,,2013-06-01 17:02:00,
2013-06-01 12:11:00,66.0,55.0,29.70,West,263,6.0,11.0,68,0.00,,,0.00,,2013-06-01 17:11:00,
2013-06-01 12:22:00,66.0,55.0,29.71,SW,234,5.0,12.0,68,0.00,,,0.00,,2013-06-01 17:22:00,
2013-06-01 12:32:00,65.0,55.0,29.71,West,264,5.0,11.0,69,0.00,,,0.00,,2013-06-01 17:32:00,
2013-06-01 12:42:00,65.0,55.0,29.71,West,264,5.0,11.0,69,0.00,,,0.00,,2013-06-01 17:42:00,
2013-06-01 12:52:00,65.0,55.0,29.71,WSW,251,5.0,12.0,70,0.00,,,0.00,,2013-06-01 17:52:00,
2013-06-01 13:01:00,66.0,56.0,29.71,West,259,5.0,12.0,70,0.00,,,0.00,,2013-06-01 18:01:00,
2013-06-01 13:12:00,66.0,56.0,29.71,West,259,5.0,12.0,70,0.00,,,0.00,,2013-06-01 18:12:00,
2013-06-01 13:21:00,66.0,56.0,29.72,SW,223,4.0,10.0,70,0.00,,,0.00,,2013-06-01 18:21:00,
2013-06-01 13:32:00,66.0,56.0,29.72,West,259,6.0,13.0,70,0.00,,,0.00,,2013-06-01 18:32:00,
2013-06-01 13:42:00,66.0,56.0,29.72,West,259,6.0,13.0,70,0.00,,,0.00,,2013-06-01 18:42:00,
2013-06-01 13:52:00,65.0,56.0,29.72,WNW,282,8.0,14.0,73,0.00,,,0.00,,2013-06-01 18:52:00,
2013-06-01 14:01:00,65.0,56.0,29.72,West,266,8.0,14.0,74,0.00,,,0.00,,2013-06-01 19:01:00,
2013-06-01 14:11:00,65.0,56.0,29.73,West,275,8.0,15.0,74,0.00,,,0.00,,2013-06-01 19:11:00,
2013-06-01 14:21:00,65.0,56.0,29.73,West,275,8.0,15.0,74,0.00,,,0.00,,2013-06-01 19:21:00,
2013-06-01 14:32:00,66.0,57.0,29.72,West,270,6.0,13.0,74,0.00,,,0.00,,2013-06-01 19:32:00,
2013-06-01 14:41:00,66.0,57.0,29.72,West,270,6.0,13.0,74,0.00,,,0.00,,2013-06-01 19:41:00,
2013-06-01 14:52:00,66.0,57.0,29.73,WSW,254,5.0,14.0,73,0.00,,,0.00,,2013-06-01 19:52:00,
2013-06-01 15:01:00,66.0,58.0,29.72,West,277,6.0,16.0,75,0.00,,,0.00,,2013-06-01 20:01:00,
2013-06-01 15:12:00,66.0,58.0,29.72,West,277,6.0,16.0,75,0.00,,,0.00,,2013-06-01 20:12:00,
2013-06-01 15:21:00,66.0,57.0,29.72,West,263,7.0,14.0,72,0.00,,,0.00,,2013-06-01 20:21:00,
2013-06-01 15:32:00,66.0,57.0,29.72,West,263,7.0,14.0,72,0.00,,,0.00,,2013-06-01 20:32:00,
2013-06-01 15:41:00,66.0,57.0,29.73,West,280,8.0,16.0,72,0.00,,,0.00,,2013-06-01 20:41:00,
2013-06-01 15:52:00,66.0,57.0,29.73,West,280,8.0,16.0,72,0.00,,,0.00,,2013-06-01 20:52:00,
2013-06-01 16:01:00,66.0,57.0,29.73,West,276,7.0,16.0,73,0.00,,,0.00,,2013-06-01 21:01:00,
2013-06-01 16:11:00,65.0,56.0,29.74,West,276,7.0,11.0,74,0.00,,,0.00,,2013-06-01 21:11:00,
2013-06-01 16:21:00,65.0,56.0,29.74,West,276,7.0,11.0,74,0.00,,,0.00,,2013-06-01 21:21:00,
2013-06-01 16:33:00,66.0,57.0,29.74,WNW,285,6.0,12.0,74,0.00,,,0.00,,2013-06-01 21:33:00,
2013-06-01 16:43:00,66.0,57.0,29.74,WNW,285,6.0,12.0,74,0.00,,,0.00,,2013-06-01 21:43:00,
2013-06-01 16:53:00,66.0,58.0,29.74,WNW,287,5.0,10.0,75,0.00,,,0.00,,2013-06-01 21:53:00,
2013-06-01 17:03:00,66.0,57.0,29.74,West,273,5.0,9.0,74,0.00,,,0.00,,2013-06-01 22:03:00,
2013-06-01 17:12:00,66.0,57.0,29.75,WNW,295,7.0,13.0,73,0.00,,,0.00,,2013-06-01 22:12:00,
2013-06-01 17:23:00,66.0,57.0,29.75,WNW,295,7.0,13.0,73,0.00,,,0.00,,2013-06-01 22:23:00,
2013-06-01 17:33:00,66.0,58.0,29.75,West,280,5.0,11.0,75,0.00,,,0.00,,2013-06-01 22:33:00,
2013-06-01 17:42:00,67.0,58.0,29.75,West,271,5.0,9.0,74,0.00,,,0.00,,2013-06-01 22:42:00,
2013-06-01 17:53:00,67.0,58.0,29.75,West,271,5.0,9.0,74,0.00,,,0.00,,2013-06-01 22:53:00,
2013-06-01 18:02:00,67.0,58.0,29.74,SW,218,4.0,12.0,73,0.00,,,0.00,,2013-06-01 23:02:00,
2013-06-01 18:11:00,68.0,58.0,29.75,West,270,5.0,10.0,71,0.00,,,0.00,,2013-06-01 23:11:00,
2013-06-01 18:21:00,68.0,58.0,29.75,West,270,5.0,10.0,71,0.00,,,0.00,,2013-06-01 23:21:00,
2013-06-01 18:32:00,69.0,58.0,29.75,West,268,8.0,14.0,69,0.00,,,0.00,,2013-06-01 23:32:00,
2013-06-01 18:42:00,69.0,58.0,29.75,West,268,8.0,14.0,69,0.00,,,0.00,,2013-06-01 23:42:00,
2013-06-01 18:52:00,68.0,57.0,29.76,West,269,10.0,18.0,69,0.00,,,0.00,,2013-06-01 23:52:00,
2013-06-01 19:02:00,67.0,58.0,29.76,West,273,4.0,15.0,72,0.00,,,0.00,,2013-06-02 00:02:00,
2013-06-01 19:11:00,67.0,58.0,29.76,West,273,4.0,15.0,72,0.00,,,0.00,,2013-06-02 00:11:00,
2013-06-01 19:21:00,67.0,58.0,29.76,West,269,7.0,13.0,73,0.00,,,0.00,,2013-06-02 00:21:00,
2013-06-01 19:32:00,67.0,58.0,29.76,West,272,6.0,11.0,73,0.00,,,0.00,,2013-06-02 00:32:00,
2013-06-01 19:41:00,67.0,58.0,29.76,West,272,6.0,11.0,73,0.00,,,0.00,,2013-06-02 00:41:00,
2013-06-01 19:52:00,66.0,59.0,29.77,West,269,8.0,13.0,78,0.00,,,0.00,,2013-06-02 00:52:00,
2013-06-01 20:01:00,65.0,59.0,29.77,WNW,282,6.0,15.0,82,0.00,,,0.00,,2013-06-02 01:01:00,
2013-06-01 20:11:00,65.0,59.0,29.77,WNW,282,6.0,15.0,82,0.00,,,0.00,,2013-06-02 01:11:00,
2013-06-01 20:21:00,65.0,60.0,29.78,West,281,5.0,11.0,83,0.00,,,0.00,,2013-06-02 01:21:00,
2013-06-01 20:32:00,65.0,60.0,29.78,WNW,298,5.0,11.0,83,0.00,,,0.00,,2013-06-02 01:32:00,
2013-06-01 20:41:00,65.0,59.0,29.78,WNW,295,4.0,10.0,82,0.00,,,0.00,,2013-06-02 01:41:00,
2013-06-01 20:52:00,65.0,59.0,29.78,WNW,295,4.0,10.0,82,0.00,,,0.00,,2013-06-02 01:52:00,
2013-06-01 21:01:00,65.0,58.0,29.79,NNW,327,7.0,13.0,77,0.00,,,0.00,,2013-06-02 02:01:00,
2013-06-01 21:12:00,65.0,58.0,29.79,NNW,327,7.0,13.0,77,0.00,,,0.00,,2013-06-02 02:12:00,
2013-06-01 21:21:00,64.0,57.0,29.80,NW,325,4.0,16.0,77,0.00,,,0.00,,2013-06-02 02:21:00,
2013-06-01 21:32:00,64.0,57.0,29.80,NW,320,4.0,15.0,77,0.00,,,0.00,,2013-06-02 02:32:00,
2013-06-01 21:41:00,64.0,57.0,29.80,NW,320,4.0,15.0,77,0.00,,,0.00,,2013-06-02 02:41:00,
2013-06-01 21:52:00,63.0,56.0,29.82,NNW,331,4.0,19.0,77,0.00,,,0.00,,2013-06-02 02:52:00,
2013-06-01 22:02:00,63.0,56.0,29.83,NW,314,5.0,12.0,78,0.00,,,0.00,,2013-06-02 03:02:00,
2013-06-01 22:11:00,63.0,56.0,29.83,NW,314,5.0,12.0,78,0.00,,,0.00,,2013-06-02 03:11:00,
2013-06-01 22:21:00,63.0,56.0,29.83,NW,315,3.0,11.0,79,0.00,,,0.00,,2013-06-02 03:21:00,
2013-06-01 22:33:00,62.0,55.0,29.84,NW,325,5.0,17.0,77,0.00,,,0.00,,2013-06-02 03:33:00,
2013-06-01 22:43:00,62.0,55.0,29.84,NW,325,5.0,17.0,77,0.00,,,0.00,,2013-06-02 03:43:00,
2013-06-01 22:53:00,62.0,54.0,29.85,NW,304,9.0,15.0,76,0.00,,,0.00,,2013-06-02 03:53:00,
2013-06-01 23:02:00,62.0,54.0,29.86,WNW,301,9.0,16.0,76,0.00,,,0.00,,2013-06-02 04:02:00,
2013-06-01 23:13:00,62.0,54.0,29.86,WNW,301,9.0,16.0,76,0.00,,,0.00,,2013-06-02 04:13:00,
2013-06-01 23:23:00,61.0,55.0,29.87,WNW,294,6.0,15.0,80,0.00,,,0.00,,2013-06-02 04:23:00,
2013-06-01 23:33:00,60.0,53.0,29.87,WNW,294,9.0,13.0,79,0.00,,,0.00,,2013-06-02 04:33:00,
2013-06-01 23:42:00,60.0,53.0,29.87,WNW,294,9.0,13.0,79,0.00,,,0.00,,2013-06-02 04:42:00,
2013-06-01 23:53:00,60.0,53.0,29.88,WNW,298,10.0,20.0,78,0.00,,,0.00,,2013-06-02 04:53:00,